CZ-6A DEB

基本信息
目录编号:
60881
目录名称:
CZ-6A DEB
国际标识:
2024-140KL
轨道中心:
EARTH
物体状态:
在轨
发射日期:
2024-08-06 UTC
轨道信息
数据来源: 国际轨道数据
星历时间: 2026-09-13T19:38:27+0800
半长轴: 7186.873km
偏心率: 0.0030828
轨道倾角: 88.996°
近地点辐角: 243.067°
升交点赤经: 264.210°
平近点角: 116.737°
近地点: 786.58km
远地点: 830.892km
周期: 101.058分钟
每日圈数: 14.249278
详细信息
发射场:
TSC
轨道高度:
LEO
数据来源:
AOE Integration Group
参考系:
TEME
时间系统:
UTC
历元类型:
SGP4
2D轨道图
3D轨道图
轨道高度分析图
轨道倾角分析图
轨道综合分析图
查看轨道综合分析图